Location: Campbell Hill
(37.9301°N, 89.5490°W)
Time: 10:41:58
(UTC+00:00)

Cosmos 1302 Rocket - Pass Details

Date: 07 November 2025
Orbit: 752 x 772 km, 74.0° (Epoch: 07 December)

Event Time Altitude Azimuth Distance (km) Brightness Sun altitude
Rises 23:12:52 0° 347° (NNW) 3,223 7.2 -4.6°
Reaches altitude 10° 23:15:20 10° 354° (N) 2,297 6.4 -5.0°
Maximum altitude 23:20:21 47° 68° (ENE) 1,004 4.2 -6.0°
Drops below altitude 10° 23:25:22 10° 142° (SE) 2,296 6.3 -6.9°
Sets 23:27:49 0° 148° (SSE) 3,221 7.1 -7.4°
